Flag for Germany Weather past 2 weeks in Weimar, Thuringia, Germany

Now
57 °F

Clear.


Feels Like: 57 °F
Forecast: 51 / 66 °F
Wind: 5 mph from South

Location: Erfurt-Bindersleben

Current Time: May 25, 2015 at 12:05:05 AM

Latest Report: May 24, 2015 at 11:20 PM


Visibility: 10 mi

Pressure: 30.04 "Hg

Humidity: 77%

Dew point: 50 °F

Location of WeimarLocation

Historic Weather in Weimar — Graph

°F

Weimar temperature yesterday

Maximum temperature yesterday: 66 °F (at 4:20 PM)
Minimum temperature yesterday: 52 °F (at 3:20 AM)
Average temperature yesterday: 58 °F

Past Weeks' High & Low Weather Summary

 TemperatureHumidityPressure
High81 °F (May 12, 2:50 PM)100% (May 21, 6:20 AM)30.36 "Hg (May 21, 6:20 AM)
Low36 °F (May 22, 2:20 AM)27% (May 19, 2:50 PM)29.65 "Hg (May 19, 1:20 AM)
Average55 °F61%30.07 "Hg
* Reported May 9 10:20 PM — May 24 10:50 PM, Weimar, Weather by CustomWeather, © 2015

Note: Actual official high and low records may vary slightly from our data, if they occured in-between our weather recording intervals... More about our weather records

Advertising

Weimar weather history for previous 24 hours

 ConditionsComfort  
Time TempWeatherWind HumidityBarometerVisibility
10:50 PM
Sun, May 24
59 °FClear.5 mph72%30.04 "Hg10 mi
10:20 PM59 °FClear.5 mph72%30.04 "Hg10 mi
9:50 PM59 °FPartly sunny.3 mph68%30.04 "HgN/A
9:20 PM61 °FPartly sunny.2 mph63%30.04 "HgN/A
8:50 PM63 °FPartly sunny.2 mph59%30.04 "HgN/A
8:20 PM63 °FScattered showers. Broken clouds.1 mph64%30.04 "HgN/A
7:50 PM63 °FSprinkles. Partly sunny.2 mph59%30.04 "HgN/A
7:20 PM63 °FPartly sunny.6 mph59%30.04 "HgN/A
6:50 PM64 °FScattered clouds.5 mph56%30.04 "HgN/A
6:20 PM66 °FScattered clouds.6 mph52%30.04 "HgN/A
5:50 PM64 °FPartly sunny.5 mph56%30.04 "HgN/A
5:20 PM64 °FScattered clouds.6 mph60%30.07 "HgN/A
4:50 PM66 °FScattered clouds.3 mph56%30.07 "HgN/A
4:20 PM66 °FPartly sunny.2 mph52%30.07 "HgN/A
3:50 PM64 °FPartly sunny.5 mph56%30.07 "HgN/A
3:20 PM64 °FPartly sunny.5 mph56%30.07 "HgN/A
2:50 PM64 °FPartly sunny.6 mph56%30.09 "HgN/A
2:20 PM64 °FPartly sunny.5 mph60%30.09 "HgN/A
1:50 PM63 °FScattered clouds.8 mph64%30.09 "HgN/A
1:20 PM63 °FPartly sunny.6 mph64%30.09 "HgN/A
12:50 PM61 °FPartly sunny.5 mph63%30.12 "HgN/A
12:20 PM61 °FPartly sunny.5 mph63%30.12 "HgN/A
11:50 AM59 °FScattered clouds.6 mph68%30.12 "HgN/A
11:20 AM59 °FScattered clouds.3 mph68%30.12 "HgN/A
10:50 AM57 °FScattered clouds.6 mph72%30.12 "HgN/A
10:20 AM55 °FPartly sunny.5 mph77%30.12 "HgN/A
9:50 AM54 °FPartly sunny.6 mph82%30.12 "HgN/A
9:20 AM54 °FPartly sunny.6 mph77%30.12 "HgN/A
8:50 AM52 °FPartly sunny.5 mph82%30.12 "HgN/A
8:20 AM52 °FPartly sunny.6 mph82%30.12 "HgN/A
7:50 AM52 °FPartly sunny.6 mph82%30.12 "HgN/A
7:20 AM52 °FPartly sunny.6 mph88%30.12 "HgN/A
6:50 AM52 °FPartly sunny.6 mph88%30.12 "HgN/A
6:20 AM52 °FPartly sunny.7 mph88%30.12 "HgN/A
5:50 AM52 °FPassing clouds.7 mph88%30.12 "HgN/A
5:20 AM52 °FPassing clouds.7 mph88%30.09 "HgN/A
4:50 AM52 °FPartly cloudy.7 mph88%30.12 "HgN/A
4:20 AM52 °FPassing clouds.7 mph88%30.12 "HgN/A
3:50 AM52 °FPassing clouds.8 mph88%30.12 "HgN/A
3:20 AM52 °FPassing clouds.8 mph88%30.12 "HgN/A
2:50 AM54 °FPartly cloudy.7 mph82%30.12 "HgN/A
2:20 AM54 °FPartly cloudy.7 mph82%30.12 "HgN/A
1:50 AM54 °FPassing clouds.9 mph82%30.12 "HgN/A
1:20 AM54 °FPassing clouds.8 mph82%30.12 "HgN/A
12:50 AM55 °FLight rain. Passing clouds.8 mph82%30.12 "HgN/A
12:20 AM55 °FLight rain. Passing clouds.9 mph82%30.12 "HgN/A
Weather by CustomWeather, © 2015

See weather overviewHow to use our weather pages